Wind_Speed
28 28 27 26 26 27 26 25 25 25 26 27 27 27 28 28 28 28 28 27 27 28 28 28 29 29 30 29 28 27 25 26 27 26 23 21 21 21 22 23 22 19 18 16 15 14 12 12 12 11 10 10 10 11 13 15 16 17 17 18 18 20 22 23 25 25 24 25 27 27 29 31 33 31 29 29 29 31 32 32 31 30 29 29 29
29 28 27 27 27 28 27 27 27 27 28 28 28 29 30 30 31 30 30 29 30 32 33 33 34 33 33 33 32 31 29 27 25 26 25 25 27 28 27 26 24 21 19 18 16 14 13 12 11 10 10 10 11 13 14 16 17 17 18 19 20 21 24 25 27 28 28 28 29 28 28 29 31 32 31 30 30 30 32 33 33 32 32 32 32
30 28 27 28 28 28 28 29 29 29 30 30 29 30 32 33 32 31 30 30 31 32 33 36 38 38 37 36 35 34 32 27 25 27 27 26 28 30 28 27 26 22 20 19 17 15 14 13 11 10 11 11 12 13 15 16 17 18 18 19 21 22 24 25 27 29 30 31 31 31 30 29 30 31 31 30 30 30 31 32 32 33 33 34 35
29 27 26 28 29 28 29 29 29 31 31 32 32 33 34 34 33 31 31 32 32 31 31 34 38 40 41 40 39 39 36 32 31 32 30 27 27 29 29 29 28 25 22 20 18 16 15 14 12 11 11 12 12 13 14 15 16 17 17 18 20 22 23 25 27 29 31 32 32 31 31 32 31 30 30 30 29 30 30 31 32 33 34 36 36
29 26 25 26 28 27 27 28 28 29 30 33 33 32 32 32 32 33 33 34 34 34 33 34 35 36 40 42 43 42 40 37 36 35 33 30 28 29 30 31 30 27 24 21 19 18 17 15 13 12 11 11 12 13 13 14 15 16 17 18 20 22 24 26 28 30 31 32 32 31 31 31 31 30 28 29 29 29 31 32 33 35 35 35 34
30 27 25 26 27 26 26 26 26 26 28 31 32 31 31 30 31 32 33 34 36 35 36 37 36 35 37 40 44 44 42 41 40 38 37 35 32 32 32 32 30 29 26 23 20 19 19 17 15 13 13 12 12 13 14 15 15 16 17 19 22 24 26 27 28 29 31 32 32 32 31 30 30 30 29 29 29 30 32 33 34 34 35 35 33
31 30 27 26 26 26 25 24 24 23 26 28 30 30 30 31 32 34 33 33 36 38 38 38 39 39 38 39 41 44 44 44 43 42 41 40 37 35 34 32 29 29 28 24 21 20 20 18 16 16 15 13 13 14 15 15 16 18 19 22 24 26 27 27 28 30 32 33 33 32 31 30 30 31 31 30 31 32 33 34 34 34 34 35 35
32 32 30 28 27 26 23 23 23 24 26 28 29 30 29 30 33 36 36 34 34 37 38 38 39 42 44 42 41 43 45 46 46 44 43 42 39 36 34 31 28 27 28 26 22 21 21 19 18 17 17 16 15 14 15 16 17 19 21 23 25 27 27 28 29 31 32 32 32 32 31 30 30 31 32 32 33 33 33 34 35 35 35 35 35
33 33 33 31 28 25 23 24 25 26 27 27 29 30 29 28 31 36 37 34 32 34 36 37 39 43 46 46 44 44 45 46 47 46 43 42 39 36 33 30 26 26 29 27 24 22 21 20 19 18 18 19 19 18 18 18 18 20 22 24 27 28 29 29 29 30 31 32 32 32 31 31 31 32 33 33 33 34 33 33 35 35 35 36 35
32 34 35 32 29 26 25 26 27 27 27 27 28 30 30 29 31 34 36 33 31 32 34 36 38 41 45 48 47 47 47 47 48 47 44 42 39 36 33 29 26 26 29 29 26 23 22 21 20 20 21 22 22 22 23 23 22 23 25 26 28 29 30 30 31 31 32 33 34 33 34 34 34 33 33 33 33 33 33 33 33 34 35 37 37
32 34 34 31 29 28 27 27 28 28 28 28 29 30 31 30 31 33 34 32 31 32 33 36 36 37 42 46 48 48 47 47 49 48 46 43 39 34 32 30 28 28 30 31 28 25 24 23 22 23 23 23 24 25 27 28 27 27 27 28 30 31 31 32 32 33 33 35 36 36 37 37 36 35 33 33 32 31 31 32 33 35 37 38 39
31 31 31 30 29 29 29 29 30 31 30 30 30 30 30 30 30 32 33 33 33 33 34 35 35 35 39 42 43 44 44 45 48 49 47 43 38 33 31 31 30 30 31 32 29 26 26 24 25 25 23 23 24 25 27 29 29 29 29 29 31 31 31 32 33 35 36 37 38 38 38 38 37 35 34 33 33 31 31 33 35 37 39 39 40
27 28 30 30 30 30 30 31 32 31 31 30 28 28 29 30 31 32 33 33 34 34 34 33 33 35 38 39 38 40 42 44 46 47 45 41 37 35 32 31 31 31 32 33 31 29 28 26 26 26 23 23 24 24 27 30 31 32 31 32 32 30 29 31 34 36 37 37 38 39 39 39 37 35 34 33 32 32 33 35 37 39 40 39 39
27 28 30 31 31 31 32 32 31 30 29 28 28 29 30 30 30 31 31 31 31 32 32 32 32 35 37 37 36 38 41 43 43 42 41 38 35 35 34 33 32 32 33 34 33 32 31 28 27 26 24 25 25 25 29 33 34 34 34 34 33 31 30 31 34 36 38 38 39 39 38 38 36 35 34 33 32 33 35 37 38 38 39 39 38
29 30 31 31 32 32 32 31 30 29 29 27 26 26 26 26 26 26 27 28 28 29 30 30 32 35 37 36 35 35 37 40 39 36 36 36 35 34 35 35 34 33 34 35 35 35 33 30 29 27 25 25 26 28 32 35 36 35 35 34 33 32 31 32 33 36 38 40 41 40 38 36 35 35 35 34 34 35 36 38 38 38 39 39 38
32 31 31 32 32 31 30 29 29 28 26 23 22 21 21 22 22 23 24 24 24 25 28 29 31 34 36 36 34 34 35 38 37 33 32 33 34 34 36 36 35 34 35 36 37 37 35 31 29 27 26 27 30 32 34 34 35 34 34 33 33 33 32 32 34 36 38 39 38 38 37 35 35 35 35 34 35 36 38 39 38 37 39 39 37
32 31 31 32 31 30 29 28 27 25 22 19 19 19 19 19 19 20 21 21 21 22 24 27 29 32 36 36 34 34 33 34 35 33 32 33 33 35 37 36 35 35 36 38 39 37 34 31 30 28 28 30 34 36 34 33 33 33 33 34 35 35 35 35 35 37 37 37 36 36 35 33 34 35 35 33 34 36 39 39 37 36 38 39 38
33 32 32 32 31 29 27 26 24 21 18 17 17 17 17 17 17 18 18 18 19 21 23 26 28 32 36 37 35 34 32 32 33 34 34 34 34 36 37 36 36 36 37 37 38 36 34 32 31 29 30 34 39 40 36 34 33 33 34 36 37 37 36 36 36 36 36 36 37 37 36 34 34 35 35 33 32 33 37 39 37 37 38 39 38
33 33 33 32 29 27 25 23 20 17 16 17 18 18 18 18 17 18 18 19 20 23 25 27 29 32 35 36 34 34 33 32 31 33 35 36 36 37 37 36 36 37 37 36 37 36 34 33 32 31 33 38 41 39 35 33 33 34 36 38 38 38 38 37 37 37 37 38 39 38 37 36 35 35 34 33 33 33 35 37 37 37 39 40 39
34 33 32 30 27 25 23 19 15 15 16 18 20 20 20 20 19 19 20 21 23 26 27 27 28 31 32 32 31 32 33 33 34 35 36 37 38 37 37 36 36 36 35 35 36 35 34 33 33 33 36 40 40 36 33 33 34 36 38 39 39 38 39 39 38 38 39 39 38 37 36 36 35 35 33 33 33 33 34 36 36 36 38 40 40
34 33 30 27 25 23 19 16 15 17 19 22 24 25 25 23 21 20 22 23 25 27 28 27 27 28 28 28 28 29 31 34 37 37 36 37 39 38 36 35 35 34 34 35 35 33 33 33 33 36 41 44 41 36 33 33 35 37 38 38 38 38 38 39 39 39 39 39 37 36 35 34 34 33 32 31 31 31 33 35 36 35 37 39 40
33 31 28 26 24 21 17 15 17 20 24 27 29 29 27 25 23 22 24 25 26 27 28 26 25 25 26 27 28 29 29 31 34 34 34 36 38 37 35 35 34 33 34 35 33 31 32 33 36 41 43 40 36 34 33 34 36 37 37 36 37 37 38 39 38 38 38 37 36 34 33 33 33 31 30 30 30 31 32 34 34 34 36 37 39
31 29 27 25 22 18 16 17 20 24 26 27 28 27 26 26 26 26 27 27 27 28 28 26 25 25 26 27 28 28 29 28 28 30 32 34 36 36 34 33 32 32 32 31 29 30 32 34 39 43 41 34 31 31 33 34 35 35 35 35 36 37 38 38 37 37 37 35 34 32 31 31 31 29 28 29 30 31 32 32 33 34 35 36 36
28 25 21 18 15 13 14 17 21 24 25 26 27 26 26 27 28 29 28 28 28 28 27 25 24 25 27 28 28 28 27 26 27 31 34 35 36 35 31 29 29 30 31 30 29 30 31 32 36 38 36 33 32 32 33 34 34 33 34 35 36 37 37 36 36 35 34 32 31 30 29 28 28 28 29 29 30 30 31 32 33 33 33 34 33
23 19 16 13 12 16 21 25 27 28 27 27 27 26 26 29 30 30 30 29 29 28 26 24 24 25 26 27 26 25 25 27 30 33 35 35 32 30 28 27 28 29 31 30 30 30 31 33 36 35 33 32 33 33 33 33 33 33 34 35 35 36 35 35 34 33 31 30 29 28 27 27 28 29 29 29 30 31 32 32 32 31 30 31 30
21 18 17 17 21 26 28 30 31 30 28 27 27 28 29 31 31 31 31 30 27 25 24 24 24 25 26 25 24 23 24 28 29 29 31 31 28 25 25 25 26 27 30 30 30 31 34 37 38 35 32 32 32 33 33 33 32 32 33 33 33 34 33 32 31 30 28 27 26 25 25 26 28 28 29 29 30 31 31 31 30 28 28 28 28
22 22 22 24 25 24 24 25 26 27 27 27 28 31 32 32 32 31 29 27 25 24 24 24 23 24 25 25 24 24 24 26 27 26 27 27 24 22 22 21 22 24 26 27 30 33 36 38 36 34 32 32 32 33 34 33 31 30 30 30 30 30 30 29 27 26 24 24 24 24 25 26 27 28 28 29 29 29 29 29 28 26 26 27 27
26 27 27 27 24 22 23 26 27 27 28 29 30 32 32 31 30 29 28 26 24 24 23 22 22 24 24 24 23 23 22 23 25 24 22 21 19 19 18 18 19 21 23 27 31 33 34 34 32 32 32 32 31 32 33 31 29 28 28 28 26 25 24 24 23 22 23 23 23 23 23 24 26 26 27 27 27 27 26 26 26 25 25 26 27
28 27 26 25 24 24 26 28 29 29 30 30 30 30 29 28 28 28 26 24 23 23 23 23 23 24 23 22 22 21 20 20 20 18 16 16 16 16 16 17 19 22 26 29 30 30 30 31 31 32 32 31 30 30 29 28 28 28 27 25 22 21 20 21 21 22 22 22 22 23 23 24 25 25 26 26 25 24 24 24 24 24 25 26 27
23 22 22 24 25 27 28 29 30 29 28 28 27 26 26 26 27 26 24 22 22 23 24 24 24 23 22 21 21 21 18 15 15 14 14 14 14 15 17 19 22 24 25 25 26 28 30 31 31 30 30 29 29 28 27 27 29 28 25 22 21 20 20 21 23 23 23 22 23 23 24 24 24 25 25 24 24 23 22 22 23 24 26 27 27
19 20 22 24 25 26 26 27 27 26 25 25 24 24 24 24 24 23 22 22 22 22 23 23 23 23 22 21 20 19 17 15 15 15 15 15 17 19 22 24 24 23 22 23 25 29 31 30 29 27 27 27 28 27 26 27 27 24 20 19 19 19 20 22 24 23 23 24 24 23 24 24 24 24 24 23 23 22 21 22 23 25 26 27 27
18 19 21 21 21 22 23 23 23 23 23 23 22 22 22 21 21 21 20 20 20 20 21 21 20 20 20 19 19 18 17 16 16 17 18 20 21 23 23 23 22 20 21 24 27 29 29 29 27 25 25 27 27 27 27 27 25 22 20 20 20 19 20 23 23 22 23 24 24 23 23 23 23 23 22 22 22 21 21 22 23 25 26 27 26
18 19 19 18 18 20 20 20 20 20 20 20 20 20 20 19 18 17 17 16 16 17 18 19 20 19 18 18 18 17 17 17 18 19 20 20 19 18 18 18 19 21 24 26 28 29 28 27 26 26 27 28 28 27 27 26 24 22 22 23 22 21 20 22 23 22 22 23 23 22 22 22 22 22 21 21 21 21 21 23 25 26 27 27 26
15 16 17 17 17 17 17 17 18 18 18 19 18 17 17 17 16 14 14 14 15 16 18 20 20 19 17 17 17 16 16 16 17 16 15 14 13 14 16 19 21 25 27 28 29 28 27 26 27 28 29 29 28 27 26 26 25 24 24 24 24 23 22 22 23 22 22 22 22 21 21 21 20 20 20 20 20 20 22 24 25 26 26 26 26
13 14 16 16 15 15 15 16 16 17 17 17 16 15 15 14 14 13 14 15 16 17 19 20 20 18 17 16 15 14 13 13 12 12 11 13 15 18 21 24 26 28 30 30 30 29 28 27 28 30 30 29 28 26 25 25 25 25 25 25 24 23 23 23 22 22 21 21 20 20 20 19 19 19 19 19 20 21 22 24 25 25 25 25 24
13 14 14 14 14 14 14 15 15 16 16 16 15 14 14 13 13 14 15 16 16 16 17 19 19 18 16 15 13 12 11 11 11 13 15 17 20 23 25 28 29 30 32 33 32 29 27 27 27 28 29 28 26 24 24 24 24 25 25 25 23 22 22 22 22 21 21 20 19 19 19 18 18 18 18 19 20 21 22 24 24 24 24 23 23
14 14 13 13 13 14 15 15 16 16 15 15 14 14 13 13 14 15 16 17 16 15 16 18 18 16 15 13 12 11 11 12 14 17 19 22 24 26 28 29 30 31 33 35 34 30 26 24 24 25 25 25 24 23 23 24 24 24 24 24 23 22 21 20 21 21 20 19 18 18 17 16 17 17 18 19 20 21 22 23 23 22 22 22 21
13 13 13 14 14 15 16 17 17 16 14 13 13 14 14 14 14 15 16 17 16 16 17 19 18 16 14 12 12 12 14 16 18 21 23 25 27 28 28 29 30 31 33 34 33 28 24 22 22 22 23 23 22 22 23 24 24 23 22 24 24 23 20 19 20 19 18 17 17 16 16 15 16 17 18 19 20 21 21 21 21 21 21 20 19
13 14 15 16 16 16 16 16 16 15 15 15 15 15 15 15 15 15 16 16 16 16 17 18 17 15 13 13 14 16 18 20 22 25 27 28 28 29 28 29 31 31 31 30 28 25 22 22 22 22 22 22 22 22 24 25 25 24 23 23 23 21 19 19 19 18 17 16 15 15 15 15 15 16 18 19 20 20 20 20 20 20 20 19 18
16 16 17 18 18 18 17 17 17 16 15 16 16 16 15 15 14 14 15 15 15 15 16 16 16 15 15 16 18 20 22 24 26 27 28 28 28 29 28 27 28 29 27 25 23 22 21 22 22 23 22 22 21 22 23 23 23 23 22 20 18 17 17 18 17 16 15 14 14 14 14 14 15 16 17 18 19 19 19 19 19 19 19 18 17
16 17 18 18 18 18 18 18 18 17 15 15 16 15 14 14 13 13 14 14 14 15 15 16 17 17 16 18 21 23 25 27 28 29 29 29 28 27 26 24 24 24 23 21 20 20 21 22 22 23 23 22 21 21 21 21 20 20 18 17 15 15 16 16 15 14 14 13 13 13 13 14 15 16 16 17 18 18 17 18 19 19 18 18 17
17 18 18 18 18 19 19 18 17 16 14 14 14 13 13 12 12 13 13 13 14 14 15 17 20 19 18 20 23 25 26 27 28 28 29 28 25 22 21 21 21 21 20 20 20 21 21 21 21 22 22 21 20 20 20 19 19 18 16 15 14 15 15 14 14 13 13 12 12 12 12 13 14 15 15 16 16 16 16 17 18 18 18 17 17
18 18 19 19 18 18 18 17 16 15 14 14 13 12 13 13 13 13 13 14 15 15 16 19 22 22 20 21 24 25 25 26 25 24 23 23 22 21 20 20 21 21 21 20 21 22 23 22 21 21 19 18 18 18 19 19 18 18 16 15 15 15 14 13 13 12 12 11 11 10 11 12 13 13 14 15 15 15 15 16 17 17 17 17 16
18 18 17 17 17 17 17 16 15 14 13 13 13 13 13 14 14 15 16 17 18 18 18 21 23 23 22 21 23 23 23 22 21 21 21 21 21 21 21 21 22 23 23 23 23 22 22 22 21 21 19 17 16 16 18 18 18 18 17 16 15 15 14 12 12 12 11 11 10 10 11 12 12 12 13 14 15 14 14 15 16 16 16 16 16
19 19 18 17 17 16 16 15 14 13 13 14 15 16 16 17 18 18 19 19 19 18 18 20 22 23 22 21 21 20 19 19 18 18 18 19 19 20 21 22 22 23 24 25 25 23 20 19 19 20 21 19 18 18 18 18 18 19 18 17 16 15 13 12 12 11 11 10 9 10 10 11 11 12 13 14 14 14 13 14 15 15 15 15 15
18 18 18 18 17 16 15 15 15 15 16 16 17 17 17 17 17 17 17 17 18 19 20 20 20 20 20 20 18 17 17 16 16 16 16 16 17 19 21 23 24 24 25 26 26 24 22 19 18 19 21 21 20 20 20 19 19 19 18 18 16 15 13 12 11 11 10 9 9 10 10 11 11 12 12 13 13 12 12 13 13 14 15 15 15
18 18 18 18 18 18 18 18 17 16 16 16 16 15 16 16 16 16 18 19 20 21 21 20 19 19 19 20 19 18 16 15 15 15 16 16 16 18 21 22 24 25 24 24 23 23 22 21 19 19 20 21 21 21 20 20 19 19 18 17 16 14 13 12 12 11 10 9 9 9 10 11 12 12 12 12 12 12 11 12 12 12 13 14 14
18 19 18 18 17 17 16 15 14 15 15 15 15 15 16 17 18 20 21 21 20 20 20 19 19 19 18 18 19 18 17 17 16 16 16 15 15 18 21 22 23 23 23 23 22 22 21 21 20 19 20 20 20 20 20 20 19 19 18 17 15 14 13 13 12 11 10 9 9 9 10 10 11 12 12 12 11 11 10 10 11 11 12 13 14
17 17 16 14 14 12 11 11 11 12 14 15 16 17 19 20 21 21 21 19 17 16 16 17 18 16 14 13 13 13 13 14 16 18 19 18 18 20 22 24 24 24 24 24 24 23 21 20 20 21 21 20 20 19 19 19 19 18 17 15 14 14 14 13 12 11 10 10 9 9 10 10 11 12 12 12 11 10 9 9 10 11 11 12 13
15 14 13 11 10 10 10 12 12 11 13 15 16 16 16 17 16 15 14 13 13 12 13 15 16 15 13 11 12 13 12 12 14 15 16 18 20 23 25 26 26 26 26 26 26 25 22 20 20 21 21 21 20 19 19 19 18 17 15 15 15 15 14 13 12 12 11 10 10 10 9 10 11 12 12 11 10 9 8 8 9 10 11 11 12
13 12 11 11 10 11 13 14 14 13 14 15 12 10 11 13 14 13 14 14 15 16 16 16 17 17 17 16 17 18 17 16 15 15 15 17 20 24 25 25 25 25 24 23 23 24 23 22 20 20 20 20 19 19 19 18 17 16 15 16 16 15 14 13 13 12 12 11 10 10 9 10 11 12 12 11 10 9 8 8 9 10 11 11 12
Wind_Direction
222 222 223 224 226 228 229 229 229 229 230 232 234 236 238 238 239 244 250 255 260 263 264 266 270 272 275 276 276 278 282 288 293 293 289 288 289 290 295 299 297 290 281 277 278 280 281 285 289 293 300 308 310 309 308 306 305 305 304 303 300 299 299 299 299 300 299 298 298 301 302 301 303 306 306 302 299 299 299 300 301 300 298 298 300
227 225 226 227 230 233 234 235 234 233 234 236 237 239 240 240 243 249 256 262 267 269 268 268 272 274 274 274 276 278 281 287 293 293 288 285 282 282 286 288 287 282 276 275 277 278 280 284 286 291 300 307 308 307 307 305 304 305 305 303 302 302 302 303 304 305 306 305 304 304 302 301 302 304 303 300 297 294 295 296 298 299 299 300 302
230 229 228 230 233 235 237 239 239 239 240 241 242 242 241 244 248 255 262 268 274 277 275 272 274 275 275 274 275 276 277 280 286 291 292 288 280 278 283 287 284 277 271 273 275 276 279 281 281 287 297 303 306 307 306 304 302 303 303 303 304 304 305 306 307 307 307 307 307 306 305 303 301 299 299 299 297 294 294 294 295 297 299 300 301
231 230 228 231 234 236 238 240 241 243 245 245 245 245 247 251 255 260 263 268 275 281 282 278 275 273 273 273 274 276 277 277 281 287 292 292 284 279 284 288 285 278 270 270 273 274 276 278 277 283 295 301 303 303 303 302 301 301 301 302 304 306 307 307 307 306 307 307 306 306 306 305 301 298 298 298 296 295 294 294 295 297 298 299 299
231 231 227 228 233 234 235 238 240 244 246 247 248 252 257 263 264 263 265 269 275 280 281 280 279 275 273 272 274 276 278 277 277 281 287 290 289 286 288 289 286 278 270 267 270 271 273 273 270 276 288 296 297 297 298 299 299 299 300 303 306 308 309 308 307 307 307 306 306 305 305 304 301 299 299 298 296 295 296 296 297 298 298 298 297
231 233 228 227 231 232 232 234 237 242 245 248 253 257 260 266 270 270 270 271 275 280 281 280 282 280 276 275 275 275 275 275 276 279 283 289 294 296 293 289 285 279 270 264 266 269 270 270 266 268 279 287 290 293 297 298 299 300 302 305 307 308 308 307 307 308 307 306 305 305 305 303 301 301 301 299 298 298 297 297 297 297 297 297 297
231 236 234 230 231 232 232 235 239 244 247 251 258 260 259 262 270 277 279 275 274 280 282 282 283 281 278 279 279 277 274 273 275 278 282 288 296 300 296 287 282 277 268 261 262 266 268 268 266 267 273 281 287 290 295 298 299 300 302 304 306 307 308 307 306 306 305 304 304 304 304 303 302 302 302 300 299 298 297 297 295 294 294 295 296
231 237 238 234 234 234 235 239 242 246 249 253 260 264 262 262 268 277 283 282 280 281 284 285 284 280 278 279 281 279 275 273 275 278 281 286 293 300 296 286 278 273 265 259 259 263 266 267 267 268 270 274 279 283 290 298 301 301 303 304 306 308 307 306 306 305 303 302 302 303 303 303 303 302 301 300 298 297 296 295 293 292 293 294 295
229 233 237 237 236 236 236 240 242 245 249 254 261 265 268 268 268 273 280 284 284 284 284 285 283 279 278 277 279 280 278 276 275 277 281 285 290 298 296 284 275 269 264 259 258 261 265 267 268 271 270 271 272 276 285 295 299 302 304 305 307 307 305 306 308 308 305 303 303 304 303 305 305 303 302 300 298 297 295 292 291 292 293 293 293
229 229 234 236 237 236 236 237 240 245 250 255 260 264 268 269 267 270 275 280 281 280 280 281 281 280 279 277 276 278 280 278 276 277 281 284 288 292 291 282 273 269 264 259 258 259 263 266 269 270 270 272 275 282 291 295 298 305 308 308 308 306 305 308 310 309 307 305 305 306 306 307 306 304 302 300 298 296 293 291 291 292 293 292 292
229 229 232 234 235 236 236 236 239 243 248 251 257 261 265 267 267 269 273 275 275 273 273 276 278 279 278 276 275 276 278 278 277 277 279 283 286 287 284 279 275 271 265 260 258 258 261 265 269 270 273 279 285 291 294 293 296 302 304 305 305 305 307 309 308 308 308 307 306 306 307 306 306 304 301 299 298 296 292 290 292 293 294 294 295
228 228 230 232 233 235 236 237 240 244 248 252 255 258 260 263 266 269 273 275 275 274 273 274 275 274 274 274 274 274 276 277 277 277 278 281 282 280 278 278 277 273 266 260 258 258 259 262 265 268 273 280 284 287 289 291 296 297 296 299 302 303 305 307 306 307 308 307 306 306 305 305 304 303 300 298 296 295 292 292 295 297 297 298 299
225 224 228 230 232 234 235 239 244 248 251 252 253 254 256 261 265 269 273 275 276 276 276 275 273 271 271 271 271 271 271 272 274 276 276 277 277 276 275 276 276 273 266 260 257 257 258 260 264 267 272 277 282 289 295 299 302 301 299 302 303 301 302 305 304 305 307 306 303 303 303 304 303 301 299 297 295 294 294 295 298 299 300 300 300
222 222 225 227 230 233 236 242 246 248 250 251 253 255 259 262 265 267 270 271 272 274 274 274 273 271 269 269 268 269 269 270 271 272 273 273 273 273 273 272 273 272 265 258 255 256 257 259 262 266 273 279 287 297 301 302 303 301 298 300 302 301 302 305 305 305 306 304 301 301 301 301 301 300 298 296 293 294 295 296 299 300 301 300 300
219 219 222 225 230 234 238 242 245 248 251 252 254 255 257 258 259 262 265 268 271 271 270 271 272 271 270 268 266 266 269 270 269 267 267 267 268 270 270 268 270 269 263 256 253 254 256 259 264 268 274 282 290 297 299 301 302 300 297 298 301 302 303 305 304 303 304 302 300 301 300 299 299 299 298 297 296 297 297 298 300 302 300 299 300
218 218 221 226 231 234 236 240 244 247 249 249 247 247 249 252 255 260 265 269 272 272 271 272 274 274 274 271 266 263 265 267 266 263 258 258 261 266 266 266 267 266 262 256 252 253 257 262 269 275 280 286 292 295 296 298 300 300 300 301 300 301 302 302 301 301 301 298 297 297 298 299 299 298 298 297 297 298 298 298 300 301 300 300 303
219 219 223 228 230 231 235 239 242 243 244 245 246 248 251 255 258 263 268 272 276 279 279 280 280 278 276 273 267 263 262 262 263 261 252 247 253 260 261 261 262 263 260 256 253 254 258 263 269 276 282 289 294 294 293 294 296 298 301 301 299 299 302 304 303 302 300 298 296 297 298 299 297 296 296 295 295 296 296 297 300 301 300 302 305
221 222 224 226 227 231 235 237 238 242 248 253 258 261 262 264 267 271 277 283 288 290 291 289 285 281 278 273 266 261 260 259 259 258 249 242 245 252 254 255 258 260 258 255 254 255 257 262 268 274 281 290 295 294 289 289 294 298 298 298 298 301 304 304 303 301 299 298 298 299 299 297 294 293 294 293 293 293 293 295 297 299 300 303 306
222 222 222 224 229 233 233 234 240 252 263 269 273 274 273 274 278 284 292 298 301 303 301 295 288 282 277 273 266 261 257 255 254 254 248 241 240 244 247 251 256 259 257 253 252 253 255 260 266 273 281 290 295 294 288 288 294 298 297 297 299 302 304 303 301 299 297 297 297 298 299 297 296 295 295 295 296 295 294 295 298 301 303 305 306
220 220 222 226 231 231 231 238 254 268 275 280 282 282 282 285 289 293 299 305 308 309 307 297 287 282 279 277 272 266 259 254 251 251 247 242 239 241 244 250 254 255 254 252 250 251 254 261 267 273 282 288 291 290 289 289 293 296 296 298 300 302 302 301 299 298 297 297 297 297 296 296 296 297 298 301 302 301 301 302 303 304 304 304 305
219 221 225 228 229 230 236 250 265 274 283 288 290 291 291 291 292 296 301 304 306 308 306 297 287 282 280 279 276 270 264 257 254 253 248 243 240 240 243 250 254 251 250 251 252 253 258 265 270 277 284 288 286 286 289 290 292 294 296 298 300 300 300 299 298 297 296 296 296 295 295 295 295 297 300 302 302 302 303 303 303 303 303 302 302
221 223 225 225 227 233 246 262 275 284 290 291 291 291 291 290 291 297 301 301 302 305 304 296 287 280 277 277 277 275 271 265 259 255 248 243 242 243 244 248 249 248 249 253 256 258 262 269 276 282 287 288 285 286 288 289 290 294 296 298 298 299 298 298 297 295 295 295 294 294 294 294 295 297 301 302 303 302 302 302 302 302 302 301 300
221 220 221 224 229 241 259 275 285 290 291 288 286 286 287 288 292 297 300 299 300 302 301 294 285 278 276 278 280 279 277 271 262 254 247 244 245 247 246 245 245 247 252 257 260 262 266 275 283 285 287 287 287 287 288 289 292 295 297 297 298 298 297 295 294 293 293 293 293 293 293 294 296 300 303 304 303 302 301 301 302 302 301 300 300
215 216 220 226 239 262 279 287 290 289 285 282 281 282 284 288 293 296 298 297 297 299 297 292 284 277 275 278 280 278 276 272 263 256 255 255 251 246 245 245 245 249 255 259 261 263 270 282 289 288 286 287 288 288 290 292 295 297 296 296 296 295 293 292 291 292 292 293 293 293 293 296 300 303 304 304 302 302 302 303 303 304 303 302 303
210 213 217 228 253 272 278 282 285 283 279 276 278 282 284 288 293 295 295 294 294 294 291 287 282 278 276 278 277 274 272 269 265 260 260 260 254 246 246 247 246 249 256 262 265 266 273 287 294 290 285 285 287 290 293 295 296 296 295 294 294 292 291 290 290 291 292 293 293 293 296 300 303 305 305 304 303 303 303 304 304 305 305 305 307
207 210 219 239 259 267 269 272 274 274 272 273 279 284 286 289 292 293 291 290 290 287 284 284 282 278 277 276 273 271 269 266 262 259 259 260 258 255 255 254 254 257 263 268 271 272 278 287 291 287 283 285 289 292 295 296 295 294 293 292 291 290 290 289 289 290 291 292 293 295 299 302 303 304 303 303 302 303 303 304 305 308 309 310 313
216 224 240 257 265 267 268 267 266 267 270 275 281 285 288 291 291 289 286 284 282 280 281 282 279 275 274 273 272 271 269 264 262 263 266 268 269 267 265 264 266 269 273 276 279 280 282 284 284 282 284 289 292 294 295 294 293 293 292 292 291 290 289 289 290 290 291 292 294 297 299 301 302 302 301 301 301 303 304 306 308 311 314 315 318
237 244 255 262 265 268 270 269 267 270 274 279 283 286 287 288 287 284 283 280 279 281 281 280 277 275 274 273 272 271 267 263 265 269 272 273 274 273 271 270 272 276 283 286 286 284 282 281 282 284 288 291 292 293 294 293 293 295 295 294 292 289 288 288 290 292 292 294 295 297 299 300 301 301 301 302 303 305 306 307 310 314 316 318 320
251 254 257 260 266 271 272 270 272 276 280 282 283 283 282 282 281 281 282 280 278 279 278 275 274 273 271 271 272 270 266 265 268 272 273 272 272 270 269 272 277 283 288 288 285 283 281 281 284 288 289 290 293 295 296 297 299 300 300 298 296 293 292 293 293 294 295 296 298 300 301 303 304 304 303 304 305 307 308 309 312 315 317 318 321
255 258 260 264 268 270 271 272 276 279 280 278 277 276 277 278 278 278 280 280 279 279 277 273 268 265 264 266 268 270 269 270 272 274 271 266 261 259 265 277 286 290 288 285 283 283 284 286 289 291 291 294 298 298 296 296 299 302 302 301 299 298 299 298 297 298 301 301 302 302 304 305 306 305 305 306 307 308 310 311 313 316 318 320 322
259 263 265 268 270 269 270 273 275 275 274 273 274 274 273 274 275 277 279 280 280 278 274 270 264 262 263 265 267 269 271 273 273 271 265 258 257 263 273 283 288 287 284 283 285 287 289 291 293 293 294 298 300 297 292 293 297 299 298 296 296 297 299 299 300 304 306 304 302 302 304 306 307 306 307 307 308 309 310 312 314 317 319 320 322
270 270 270 272 272 269 270 272 272 272 273 273 272 270 269 270 273 276 277 276 275 272 268 263 259 259 262 265 265 266 268 269 269 268 265 265 269 275 279 282 283 283 284 286 287 289 290 292 293 291 291 296 298 295 292 294 297 295 292 291 293 294 295 297 302 306 305 301 300 302 304 306 307 307 307 308 308 310 312 314 316 317 318 320 322
275 275 276 278 275 271 271 272 271 270 270 269 266 265 266 269 270 269 269 268 266 265 262 257 254 254 258 262 264 266 267 267 266 268 269 272 275 279 281 282 285 287 288 287 288 290 291 292 290 288 290 295 297 295 293 294 295 293 292 292 292 291 292 297 302 306 304 301 300 301 303 305 307 307 307 308 310 312 315 316 317 317 319 321 322
273 274 278 278 274 270 269 268 266 265 264 263 262 262 263 263 260 258 260 263 265 263 260 256 253 252 256 263 269 272 272 270 269 271 275 279 284 288 291 294 293 291 289 289 289 291 291 291 289 289 292 296 297 295 294 293 293 292 292 292 291 290 292 297 302 305 306 304 302 302 303 306 307 307 308 309 312 315 316 316 317 318 320 321 322
274 275 276 272 268 265 263 262 261 262 262 262 262 261 260 260 260 262 265 268 267 264 259 255 254 255 260 266 270 270 269 270 274 281 289 295 298 299 299 297 294 292 290 290 290 291 291 291 290 290 292 295 295 294 293 291 290 291 292 292 291 293 296 300 303 307 308 306 304 303 304 305 306 307 309 311 314 316 316 316 318 319 320 321 322
273 270 268 265 263 260 257 256 256 256 258 259 261 261 263 269 275 277 276 273 269 264 259 256 254 255 258 260 259 259 264 272 282 289 294 295 295 295 295 293 292 292 292 291 292 292 291 288 286 286 289 291 292 292 292 292 292 293 293 290 290 294 299 302 304 307 308 305 302 302 304 305 306 308 310 313 315 316 317 317 318 320 321 321 322
262 257 254 253 253 251 248 249 250 251 253 256 262 268 273 278 281 280 276 272 266 260 258 257 255 254 256 255 256 262 273 282 286 288 289 290 290 291 291 292 293 294 294 294 295 296 293 288 285 285 287 288 289 290 292 293 294 294 294 293 293 294 297 301 304 306 306 303 301 302 303 305 308 310 312 314 316 317 318 318 318 320 322 322 322
252 249 244 241 241 241 243 246 248 250 255 262 270 278 280 278 275 272 269 266 262 257 257 259 260 260 259 259 264 274 281 283 284 285 286 288 290 290 291 292 293 293 293 294 296 297 296 293 290 289 289 289 291 292 292 292 292 290 289 291 293 294 296 301 304 304 302 300 300 301 304 306 310 312 314 316 318 319 320 320 321 323 324 324 324
242 240 238 238 239 241 245 249 252 257 264 270 276 279 278 273 266 261 261 262 259 254 255 258 260 260 260 262 268 274 276 278 281 285 287 289 289 289 289 290 289 288 288 291 293 295 295 295 295 294 293 292 292 291 289 289 290 289 285 284 288 293 298 302 303 301 299 299 299 300 304 307 310 314 316 318 320 322 322 322 323 324 325 327 328
238 236 236 239 243 247 252 257 261 266 271 275 276 276 274 268 261 254 255 258 257 253 252 253 253 253 255 260 265 269 273 278 283 286 287 288 287 288 288 287 285 285 287 289 291 294 297 299 300 300 299 297 295 291 288 289 292 292 289 286 287 293 298 300 299 297 297 297 297 299 304 308 312 316 319 320 321 323 324 323 325 328 329 331 332
240 241 242 244 248 252 257 261 266 271 276 277 276 273 268 262 254 249 249 251 251 250 250 251 251 252 255 263 269 273 279 283 286 287 288 287 287 286 285 283 283 286 290 294 297 300 303 304 303 303 303 302 300 296 295 295 295 294 292 291 292 296 298 296 294 294 293 294 296 298 303 310 314 317 320 320 321 324 325 326 328 331 332 334 334
243 246 248 250 252 256 260 265 270 274 275 275 273 269 262 256 251 247 248 250 251 252 256 260 263 264 267 272 277 281 284 285 286 287 288 288 287 286 283 283 284 286 290 296 301 302 302 301 300 301 303 302 299 297 297 298 298 297 297 297 297 298 295 291 289 290 289 290 294 298 304 311 315 317 320 321 323 326 328 328 329 331 333 336 336
246 247 248 251 255 259 261 264 267 270 271 270 268 262 257 255 252 249 249 251 256 261 268 273 275 276 277 279 280 281 282 282 282 284 285 286 287 286 283 283 286 287 290 294 296 296 297 298 298 299 299 299 297 297 297 300 301 300 299 299 298 295 291 287 286 287 287 287 292 299 305 311 315 317 320 321 324 328 330 330 330 332 334 336 336
247 249 250 251 255 257 260 262 265 267 266 263 259 255 253 253 253 254 256 260 265 270 274 277 280 284 286 285 282 280 279 279 280 281 281 282 283 284 282 283 286 287 288 290 290 290 292 294 296 298 299 300 300 298 297 299 301 299 298 299 297 293 287 283 281 282 283 285 291 299 306 312 316 319 320 321 323 328 331 331 330 333 336 337 337
248 253 256 257 257 257 258 261 263 263 261 260 258 256 255 256 258 260 262 264 268 272 276 280 284 288 289 287 284 281 281 281 281 280 280 279 279 278 278 280 281 282 285 289 291 291 291 291 293 296 299 301 302 300 297 297 297 297 297 297 295 290 284 280 278 279 279 282 289 299 306 312 317 319 320 320 322 326 331 331 331 333 337 338 337
249 251 254 256 255 253 254 259 263 266 266 264 261 257 256 259 261 262 264 268 274 279 282 283 283 283 283 283 282 280 279 280 280 278 277 276 274 273 273 275 277 279 283 287 289 289 290 291 292 294 295 296 297 297 295 294 294 293 294 294 293 288 282 277 274 274 275 279 288 298 305 311 317 319 318 318 320 324 328 330 331 334 338 340 339
249 249 250 252 253 256 260 263 265 266 264 261 258 256 257 260 263 266 271 277 283 286 286 284 280 277 274 273 273 271 271 273 274 274 273 272 271 271 272 273 276 280 283 284 284 285 287 289 290 290 291 293 294 294 293 293 292 290 289 290 290 285 278 274 273 272 272 275 284 295 305 311 315 317 317 315 317 323 327 329 332 336 339 341 341
248 250 252 254 257 260 260 259 259 259 255 253 255 259 265 270 275 280 284 286 285 284 282 279 276 273 270 267 268 267 265 263 262 263 266 268 269 271 272 273 276 279 280 280 282 285 287 290 291 290 289 289 289 289 291 292 290 286 285 287 285 279 273 271 271 268 267 272 281 292 303 310 313 315 315 312 314 321 326 327 333 337 340 343 345
247 251 253 254 254 252 247 244 248 251 252 255 262 269 274 277 280 282 284 284 282 280 278 276 272 269 265 265 269 271 268 264 261 259 258 257 257 260 265 271 277 280 281 283 287 290 288 288 291 291 289 286 284 284 287 288 286 285 285 283 278 273 269 268 267 264 263 269 278 287 298 307 311 312 312 309 310 318 325 327 333 339 342 345 347
248 249 247 243 238 235 241 249 252 253 259 267 273 275 276 277 277 276 277 278 277 276 278 279 278 276 274 274 276 275 273 271 269 266 264 262 261 263 266 270 275 278 281 284 289 291 291 290 291 291 289 287 284 283 284 285 284 283 282 277 273 270 266 263 262 260 259 265 274 282 293 305 310 310 309 306 306 312 320 326 331 337 342 346 348
240 237 234 233 232 238 251 258 259 263 270 274 272 267 269 274 275 274 276 278 277 277 278 279 280 280 279 279 281 282 282 280 279 278 276 275 274 275 277 278 278 280 281 283 285 287 289 291 292 291 289 288 284 281 281 283 282 278 275 272 270 268 264 260 257 256 255 261 270 279 289 301 307 306 305 303 300 303 313 321 325 331 338 344 345
Height
3163 3165 3168 3169 3170 3172 3173 3175 3176 3178 3179 3180 3181 3181 3182 3183 3184 3184 3184 3184 3185 3185 3185 3185 3185 3184 3184 3184 3184 3184 3184 3184 3184 3185 3184 3183 3181 3180 3181 3181 3181 3180 3179 3178 3177 3177 3176 3176 3175 3175 3174 3174 3173 3173 3173 3172 3171 3171 3171 3170 3170 3168 3167 3167 3165 3165 3166 3165 3163 3161 3160 3156 3154 3153 3151 3149 3148 3146 3145 3144 3144 3143 3142 3141 3141
3160 3163 3165 3167 3168 3169 3171 3173 3174 3176 3177 3178 3179 3179 3180 3181 3182 3182 3182 3182 3183 3182 3183 3182 3181 3181 3181 3180 3180 3180 3181 3182 3182 3182 3182 3181 3180 3179 3179 3179 3179 3177 3177 3176 3176 3175 3174 3174 3174 3174 3173 3172 3172 3171 3171 3170 3169 3169 3168 3168 3168 3167 3165 3164 3162 3161 3160 3160 3159 3158 3157 3155 3152 3150 3148 3147 3146 3144 3142 3141 3140 3139 3138 3138 3137
3158 3160 3163 3164 3166 3167 3169 3171 3172 3173 3174 3175 3177 3178 3178 3178 3179 3179 3180 3180 3180 3179 3180 3179 3178 3178 3177 3177 3177 3176 3177 3178 3178 3179 3179 3178 3178 3177 3177 3177 3176 3175 3175 3174 3174 3173 3173 3172 3172 3172 3171 3171 3170 3170 3169 3169 3168 3167 3167 3166 3165 3165 3163 3162 3160 3158 3156 3156 3155 3154 3153 3152 3150 3148 3146 3144 3143 3141 3139 3138 3137 3136 3135 3134 3133
3155 3157 3160 3162 3163 3165 3167 3168 3170 3171 3172 3173 3174 3175 3175 3175 3177 3178 3178 3178 3177 3176 3176 3176 3175 3175 3174 3173 3173 3173 3173 3174 3174 3175 3175 3175 3175 3175 3174 3174 3174 3174 3173 3172 3171 3171 3171 3170 3170 3170 3170 3169 3169 3168 3168 3167 3166 3165 3165 3164 3163 3162 3161 3160 3158 3156 3154 3153 3152 3151 3149 3147 3146 3145 3143 3141 3140 3138 3136 3135 3134 3133 3131 3130 3129
3152 3155 3158 3159 3160 3162 3164 3166 3167 3168 3170 3170 3171 3171 3172 3173 3174 3174 3174 3174 3173 3172 3172 3172 3171 3172 3171 3170 3170 3170 3171 3171 3170 3171 3172 3172 3172 3173 3172 3172 3171 3171 3171 3170 3169 3168 3168 3168 3168 3168 3168 3167 3167 3166 3165 3165 3164 3163 3163 3162 3161 3160 3159 3158 3156 3154 3152 3150 3149 3148 3147 3145 3142 3141 3140 3138 3136 3135 3133 3131 3130 3128 3127 3126 3125
3149 3152 3155 3156 3157 3159 3161 3163 3164 3166 3167 3167 3168 3169 3170 3170 3170 3170 3171 3171 3169 3168 3168 3168 3168 3169 3168 3168 3167 3167 3168 3167 3167 3167 3168 3169 3169 3169 3169 3169 3168 3168 3168 3167 3166 3166 3166 3166 3166 3165 3165 3165 3165 3164 3163 3163 3162 3162 3161 3160 3160 3158 3157 3155 3154 3151 3149 3147 3146 3144 3143 3142 3139 3137 3137 3135 3133 3132 3130 3128 3127 3125 3123 3121 3121
3147 3148 3151 3153 3155 3157 3159 3160 3162 3163 3164 3164 3164 3165 3168 3168 3166 3165 3167 3168 3166 3165 3164 3164 3164 3165 3165 3165 3164 3164 3164 3163 3163 3164 3164 3165 3165 3166 3165 3165 3164 3165 3165 3164 3164 3164 3164 3164 3163 3163 3163 3163 3162 3162 3161 3161 3160 3160 3160 3159 3158 3156 3155 3153 3151 3149 3147 3144 3142 3141 3139 3138 3135 3134 3132 3132 3130 3129 3127 3124 3122 3121 3119 3118 3117
3145 3146 3148 3150 3152 3154 3157 3158 3159 3160 3160 3161 3161 3161 3164 3165 3164 3162 3162 3164 3164 3162 3160 3160 3161 3160 3160 3161 3161 3161 3160 3160 3160 3160 3161 3161 3162 3162 3161 3160 3161 3161 3162 3161 3161 3161 3161 3161 3161 3160 3161 3160 3160 3160 3159 3159 3158 3158 3157 3156 3155 3153 3152 3150 3148 3146 3144 3142 3140 3138 3136 3134 3133 3130 3129 3128 3126 3125 3124 3121 3118 3116 3115 3114 3113
3142 3143 3144 3146 3149 3152 3154 3155 3156 3156 3157 3158 3158 3158 3160 3162 3162 3160 3158 3159 3161 3159 3157 3156 3156 3156 3155 3156 3157 3157 3156 3156 3156 3157 3158 3158 3159 3158 3157 3157 3157 3158 3158 3158 3158 3158 3159 3158 3158 3158 3158 3158 3157 3157 3157 3156 3155 3155 3154 3153 3152 3150 3149 3147 3145 3143 3141 3139 3137 3135 3133 3131 3130 3128 3126 3124 3122 3120 3119 3117 3114 3112 3111 3110 3109
3139 3140 3141 3144 3147 3149 3151 3151 3152 3152 3154 3155 3155 3155 3156 3157 3157 3156 3155 3156 3157 3156 3154 3153 3152 3152 3151 3152 3153 3152 3151 3152 3153 3153 3154 3155 3155 3155 3154 3154 3154 3154 3155 3155 3155 3156 3156 3156 3156 3155 3155 3154 3154 3155 3155 3154 3153 3152 3151 3150 3149 3147 3145 3143 3142 3140 3138 3136 3134 3132 3129 3127 3126 3125 3123 3121 3119 3117 3115 3113 3111 3109 3108 3105 3104
3134 3137 3139 3142 3144 3146 3147 3148 3148 3149 3151 3152 3152 3152 3153 3153 3152 3152 3151 3152 3152 3151 3150 3149 3148 3148 3148 3147 3147 3147 3147 3148 3149 3150 3151 3151 3152 3152 3151 3151 3151 3151 3152 3152 3152 3153 3153 3153 3153 3152 3151 3152 3152 3153 3152 3152 3151 3149 3148 3147 3146 3144 3142 3139 3138 3136 3134 3132 3130 3128 3126 3123 3121 3120 3119 3117 3116 3114 3112 3109 3107 3106 3104 3101 3099
3131 3134 3137 3139 3140 3142 3143 3144 3145 3146 3148 3149 3149 3150 3150 3149 3149 3149 3149 3148 3148 3147 3146 3145 3145 3144 3144 3143 3143 3143 3143 3144 3145 3146 3147 3147 3148 3148 3148 3148 3148 3148 3148 3148 3149 3149 3149 3149 3149 3148 3149 3149 3149 3150 3149 3148 3147 3146 3145 3144 3143 3141 3139 3136 3134 3132 3130 3128 3126 3124 3122 3120 3118 3116 3115 3113 3111 3110 3108 3106 3104 3102 3100 3097 3094
3129 3132 3133 3135 3137 3138 3139 3140 3142 3143 3144 3145 3146 3147 3147 3146 3146 3146 3146 3146 3145 3143 3142 3142 3141 3140 3139 3139 3139 3138 3139 3139 3140 3141 3142 3143 3143 3143 3144 3144 3144 3144 3145 3145 3146 3145 3144 3146 3146 3145 3146 3146 3145 3145 3144 3143 3143 3142 3141 3140 3140 3138 3136 3133 3131 3128 3127 3125 3123 3121 3118 3116 3114 3112 3111 3109 3107 3105 3103 3101 3100 3098 3095 3093 3091
3126 3128 3130 3131 3133 3134 3136 3137 3138 3139 3140 3142 3143 3143 3144 3144 3143 3143 3143 3142 3142 3141 3140 3139 3138 3136 3135 3135 3135 3134 3133 3134 3135 3137 3138 3138 3139 3139 3139 3139 3140 3140 3141 3141 3142 3141 3140 3142 3143 3143 3144 3143 3142 3141 3140 3139 3138 3137 3136 3136 3135 3134 3132 3130 3127 3125 3123 3121 3119 3117 3115 3112 3109 3107 3106 3104 3102 3101 3099 3097 3095 3094 3091 3088 3087
3123 3125 3126 3128 3129 3131 3133 3134 3135 3136 3137 3139 3140 3140 3140 3140 3140 3139 3139 3138 3138 3138 3137 3135 3134 3132 3131 3130 3130 3130 3130 3129 3130 3132 3133 3133 3134 3134 3134 3134 3135 3136 3137 3137 3138 3137 3136 3138 3139 3140 3141 3140 3139 3139 3138 3136 3134 3132 3131 3131 3130 3129 3128 3127 3124 3122 3119 3117 3114 3112 3110 3108 3106 3103 3101 3100 3097 3096 3094 3092 3091 3089 3086 3083 3082
3119 3121 3123 3125 3126 3128 3130 3131 3132 3133 3134 3135 3136 3137 3137 3136 3136 3136 3135 3134 3134 3134 3133 3131 3130 3129 3127 3126 3126 3126 3126 3125 3124 3126 3128 3129 3129 3129 3129 3129 3131 3132 3132 3133 3134 3134 3133 3134 3135 3136 3137 3136 3135 3135 3134 3132 3130 3127 3126 3125 3125 3124 3124 3123 3121 3118 3116 3114 3111 3109 3106 3104 3102 3099 3097 3095 3093 3091 3089 3087 3087 3085 3081 3077 3076
3116 3118 3120 3122 3123 3125 3127 3128 3129 3130 3131 3132 3132 3132 3132 3132 3132 3132 3131 3131 3131 3130 3130 3128 3127 3125 3124 3122 3121 3121 3121 3120 3120 3121 3123 3124 3124 3124 3124 3125 3126 3127 3128 3129 3130 3131 3132 3132 3132 3132 3132 3132 3131 3131 3130 3128 3126 3124 3122 3121 3120 3119 3119 3118 3115 3113 3111 3108 3107 3105 3103 3101 3098 3095 3094 3092 3090 3088 3084 3082 3082 3081 3077 3074 3071
3113 3115 3117 3119 3121 3122 3124 3125 3126 3127 3127 3128 3128 3128 3128 3128 3128 3129 3129 3128 3128 3127 3126 3125 3123 3121 3119 3118 3117 3117 3117 3117 3116 3116 3118 3119 3120 3119 3120 3121 3122 3122 3124 3125 3127 3128 3129 3129 3128 3129 3129 3128 3127 3126 3125 3124 3122 3121 3119 3117 3115 3115 3113 3112 3110 3108 3106 3103 3101 3099 3098 3096 3094 3092 3090 3088 3087 3085 3081 3079 3078 3076 3072 3070 3067
3110 3113 3114 3116 3118 3120 3121 3122 3123 3123 3123 3124 3124 3124 3124 3125 3125 3125 3125 3125 3124 3123 3122 3121 3118 3117 3115 3113 3113 3113 3113 3113 3112 3112 3113 3114 3115 3115 3115 3116 3117 3118 3120 3122 3123 3124 3124 3124 3125 3125 3125 3124 3123 3121 3120 3119 3118 3117 3115 3113 3111 3110 3108 3107 3105 3103 3101 3099 3097 3094 3092 3091 3089 3087 3085 3083 3082 3080 3078 3075 3073 3071 3067 3065 3063
3108 3110 3112 3113 3115 3117 3118 3119 3119 3119 3119 3120 3120 3120 3120 3121 3121 3121 3121 3120 3119 3118 3118 3116 3114 3112 3110 3110 3109 3109 3109 3109 3108 3107 3108 3110 3110 3111 3111 3112 3113 3114 3116 3117 3118 3119 3120 3121 3122 3122 3122 3120 3119 3117 3116 3115 3114 3113 3111 3109 3107 3105 3104 3102 3100 3098 3096 3095 3093 3091 3088 3086 3084 3082 3080 3079 3077 3075 3073 3071 3069 3067 3064 3060 3058
3105 3107 3109 3111 3112 3113 3114 3115 3115 3115 3116 3116 3116 3116 3116 3117 3117 3117 3116 3115 3114 3113 3112 3111 3110 3108 3107 3106 3106 3105 3105 3104 3103 3103 3105 3106 3105 3106 3108 3109 3110 3111 3112 3113 3114 3116 3117 3118 3119 3118 3117 3116 3115 3113 3112 3111 3110 3109 3107 3105 3103 3100 3098 3096 3095 3093 3092 3090 3088 3086 3084 3082 3080 3078 3076 3075 3074 3072 3070 3068 3066 3064 3061 3057 3054
3101 3103 3105 3107 3108 3109 3110 3111 3111 3112 3112 3112 3113 3113 3113 3112 3113 3113 3112 3110 3109 3108 3108 3107 3106 3104 3103 3103 3102 3101 3101 3101 3100 3100 3102 3101 3100 3101 3104 3105 3106 3108 3108 3109 3111 3114 3115 3115 3115 3114 3113 3111 3110 3109 3108 3107 3106 3105 3103 3100 3098 3096 3094 3092 3090 3089 3087 3085 3084 3082 3080 3078 3076 3074 3073 3071 3070 3068 3066 3064 3062 3060 3057 3054 3051
3098 3100 3102 3103 3104 3105 3106 3107 3107 3108 3108 3109 3109 3109 3109 3108 3108 3108 3107 3106 3105 3104 3103 3103 3102 3100 3100 3099 3098 3098 3097 3097 3097 3097 3097 3097 3097 3097 3099 3101 3103 3105 3106 3107 3109 3111 3112 3112 3111 3109 3107 3107 3106 3105 3104 3103 3102 3100 3098 3095 3093 3091 3089 3088 3086 3085 3083 3081 3079 3077 3076 3074 3072 3070 3069 3068 3066 3064 3062 3060 3058 3056 3053 3051 3048
3095 3097 3099 3100 3101 3103 3104 3104 3104 3105 3105 3105 3105 3105 3105 3104 3103 3103 3103 3102 3100 3100 3099 3099 3098 3097 3096 3095 3095 3094 3094 3094 3094 3094 3094 3094 3093 3094 3096 3099 3102 3103 3104 3105 3107 3108 3108 3108 3107 3105 3103 3102 3102 3101 3100 3099 3097 3096 3093 3091 3089 3087 3086 3084 3082 3080 3078 3077 3075 3073 3072 3070 3068 3066 3065 3064 3062 3060 3058 3056 3054 3052 3049 3047 3044
3092 3094 3095 3097 3099 3100 3101 3102 3102 3102 3102 3102 3101 3101 3101 3100 3099 3099 3098 3097 3096 3096 3095 3095 3094 3093 3092 3092 3091 3091 3091 3092 3091 3091 3091 3090 3090 3092 3095 3098 3100 3101 3102 3103 3104 3104 3104 3104 3103 3101 3099 3098 3098 3097 3095 3094 3093 3091 3088 3086 3085 3083 3081 3079 3077 3075 3074 3073 3071 3069 3068 3066 3065 3063 3061 3060 3058 3056 3054 3052 3050 3049 3046 3043 3041
3088 3090 3092 3094 3097 3098 3098 3098 3098 3099 3098 3098 3097 3097 3096 3096 3095 3095 3094 3093 3092 3092 3091 3091 3091 3090 3089 3088 3088 3088 3089 3089 3088 3087 3088 3088 3089 3091 3094 3096 3098 3099 3100 3101 3101 3101 3101 3100 3099 3097 3096 3095 3094 3092 3091 3089 3088 3086 3084 3082 3080 3078 3076 3074 3073 3071 3070 3069 3067 3066 3064 3063 3061 3060 3058 3057 3055 3053 3051 3048 3047 3045 3042 3039 3038
3084 3086 3088 3091 3095 3096 3095 3095 3095 3094 3094 3094 3093 3092 3092 3092 3092 3091 3091 3090 3089 3088 3088 3087 3087 3087 3086 3086 3086 3086 3087 3087 3086 3086 3087 3089 3090 3092 3094 3095 3097 3097 3098 3098 3098 3098 3098 3097 3095 3093 3092 3091 3090 3088 3086 3085 3083 3082 3080 3077 3075 3074 3072 3070 3069 3067 3066 3065 3064 3063 3061 3060 3058 3057 3055 3053 3052 3049 3047 3045 3043 3041 3039 3036 3035
3082 3083 3084 3087 3091 3093 3094 3094 3092 3090 3090 3090 3089 3088 3088 3088 3088 3088 3088 3087 3086 3086 3085 3084 3084 3083 3083 3084 3084 3084 3084 3085 3085 3086 3087 3088 3089 3090 3092 3093 3094 3094 3095 3095 3094 3094 3094 3092 3091 3090 3088 3087 3086 3084 3082 3080 3078 3077 3075 3073 3071 3069 3068 3066 3065 3064 3063 3062 3061 3060 3058 3057 3055 3054 3052 3050 3048 3046 3044 3042 3040 3038 3036 3034 3032
3080 3080 3081 3083 3085 3088 3090 3090 3088 3086 3085 3085 3085 3084 3084 3084 3084 3084 3084 3084 3083 3083 3082 3082 3081 3080 3080 3081 3082 3082 3082 3083 3083 3084 3085 3086 3088 3089 3090 3091 3092 3092 3091 3091 3090 3090 3090 3089 3088 3086 3085 3083 3082 3080 3078 3075 3074 3072 3070 3069 3067 3066 3064 3063 3062 3061 3060 3059 3058 3056 3055 3053 3052 3051 3049 3047 3045 3043 3041 3039 3037 3035 3034 3032 3029
3077 3077 3078 3079 3081 3084 3085 3085 3083 3082 3081 3081 3080 3080 3080 3080 3080 3080 3081 3081 3080 3079 3079 3079 3078 3078 3078 3079 3079 3080 3080 3081 3081 3082 3084 3085 3086 3087 3088 3089 3089 3088 3088 3087 3087 3086 3086 3085 3084 3082 3080 3079 3078 3076 3074 3072 3070 3068 3066 3065 3063 3062 3062 3060 3059 3058 3057 3056 3055 3053 3052 3050 3049 3047 3046 3044 3042 3040 3038 3036 3034 3032 3031 3029 3027
3073 3074 3075 3075 3077 3079 3079 3079 3078 3077 3076 3076 3076 3076 3077 3077 3077 3077 3077 3077 3076 3076 3075 3076 3075 3075 3076 3076 3077 3077 3078 3079 3080 3081 3082 3083 3084 3085 3085 3085 3085 3085 3084 3084 3083 3083 3082 3081 3079 3078 3076 3075 3074 3072 3071 3069 3067 3065 3064 3062 3061 3060 3059 3058 3057 3056 3055 3053 3052 3050 3049 3047 3046 3044 3043 3041 3040 3038 3036 3034 3032 3030 3029 3027 3024
3070 3070 3071 3071 3073 3073 3073 3073 3073 3072 3072 3073 3073 3073 3073 3074 3074 3074 3074 3073 3073 3073 3073 3073 3073 3073 3074 3074 3075 3075 3076 3077 3079 3080 3080 3081 3082 3082 3082 3081 3081 3081 3081 3081 3080 3079 3078 3077 3075 3074 3073 3071 3070 3069 3067 3065 3064 3062 3061 3060 3059 3058 3057 3055 3054 3054 3052 3050 3049 3047 3046 3045 3043 3042 3040 3039 3037 3036 3034 3032 3030 3028 3027 3024 3022
3066 3067 3066 3067 3068 3068 3069 3069 3069 3069 3069 3069 3069 3070 3070 3070 3070 3071 3070 3070 3070 3070 3070 3071 3071 3071 3072 3072 3073 3074 3075 3076 3077 3077 3078 3078 3078 3078 3078 3078 3078 3078 3078 3078 3077 3076 3075 3074 3072 3070 3069 3068 3067 3065 3063 3062 3061 3060 3058 3057 3056 3056 3054 3052 3051 3051 3050 3048 3046 3045 3043 3042 3041 3039 3038 3036 3035 3033 3032 3030 3028 3026 3024 3022 3020
3062 3063 3063 3063 3064 3065 3065 3066 3065 3065 3065 3066 3066 3067 3067 3067 3067 3067 3067 3067 3068 3068 3068 3069 3069 3069 3070 3070 3071 3072 3073 3073 3074 3075 3075 3075 3075 3075 3075 3075 3075 3075 3074 3074 3073 3072 3071 3070 3068 3066 3065 3065 3063 3062 3060 3058 3057 3056 3056 3055 3053 3052 3051 3049 3048 3047 3046 3044 3043 3042 3041 3040 3038 3037 3036 3034 3033 3031 3030 3028 3026 3024 3022 3019 3017
3058 3059 3059 3060 3061 3062 3063 3063 3062 3062 3062 3063 3063 3064 3064 3064 3064 3065 3065 3065 3065 3065 3066 3066 3067 3067 3068 3068 3069 3070 3070 3071 3072 3072 3072 3072 3073 3073 3072 3072 3072 3072 3070 3069 3069 3068 3067 3066 3064 3062 3061 3060 3059 3058 3057 3056 3054 3054 3053 3052 3050 3049 3047 3046 3045 3044 3043 3042 3040 3039 3038 3037 3036 3035 3033 3032 3031 3029 3028 3026 3024 3021 3019 3017 3015
3056 3056 3057 3058 3059 3060 3060 3060 3060 3060 3060 3060 3061 3061 3061 3061 3062 3062 3062 3062 3062 3063 3063 3064 3064 3065 3065 3066 3067 3067 3068 3069 3069 3069 3070 3070 3070 3070 3070 3069 3068 3067 3066 3065 3064 3065 3064 3062 3061 3059 3058 3056 3055 3055 3053 3052 3052 3051 3050 3049 3047 3046 3044 3043 3042 3041 3040 3039 3038 3037 3036 3035 3034 3033 3031 3030 3029 3027 3026 3024 3022 3020 3017 3015 3013
3054 3054 3055 3056 3057 3058 3058 3058 3058 3058 3058 3059 3059 3059 3059 3059 3059 3059 3059 3059 3059 3060 3061 3061 3061 3062 3063 3064 3065 3065 3066 3066 3066 3067 3067 3067 3067 3067 3066 3065 3065 3064 3062 3059 3059 3060 3060 3059 3057 3056 3054 3053 3052 3051 3050 3049 3049 3048 3046 3045 3044 3043 3042 3041 3040 3039 3038 3037 3036 3035 3034 3033 3032 3031 3030 3028 3027 3025 3024 3022 3019 3017 3015 3013 3011
3053 3053 3054 3054 3055 3055 3055 3055 3056 3056 3057 3057 3057 3057 3057 3057 3057 3057 3057 3056 3057 3057 3058 3058 3059 3060 3061 3061 3062 3063 3063 3064 3064 3064 3064 3064 3064 3064 3063 3062 3061 3060 3058 3056 3054 3055 3055 3054 3053 3052 3051 3049 3049 3048 3047 3046 3046 3045 3044 3043 3042 3041 3039 3038 3037 3036 3036 3035 3034 3033 3032 3031 3030 3029 3028 3026 3025 3023 3022 3020 3017 3015 3014 3012 3010
3050 3051 3051 3052 3052 3053 3053 3054 3054 3055 3055 3055 3055 3055 3055 3055 3055 3054 3054 3054 3055 3055 3056 3056 3057 3058 3059 3059 3060 3061 3061 3061 3061 3061 3061 3061 3061 3060 3060 3060 3058 3056 3055 3054 3052 3051 3051 3050 3049 3048 3047 3046 3046 3045 3044 3043 3042 3041 3041 3040 3039 3037 3036 3035 3035 3034 3033 3033 3032 3031 3030 3030 3029 3027 3026 3024 3023 3021 3020 3018 3016 3014 3012 3010 3009
3048 3048 3048 3049 3050 3050 3051 3051 3052 3052 3053 3053 3053 3053 3053 3053 3053 3053 3052 3052 3053 3054 3054 3054 3055 3056 3057 3058 3058 3058 3058 3058 3058 3058 3058 3058 3058 3057 3056 3056 3054 3052 3051 3051 3050 3048 3047 3046 3045 3044 3044 3043 3043 3042 3041 3040 3039 3038 3037 3036 3035 3035 3034 3033 3032 3032 3031 3031 3030 3029 3028 3028 3027 3026 3024 3023 3021 3020 3018 3016 3014 3012 3011 3009 3007
3045 3045 3046 3046 3047 3048 3048 3049 3049 3050 3050 3051 3051 3051 3051 3051 3051 3051 3051 3051 3051 3052 3052 3052 3053 3054 3056 3056 3056 3056 3056 3055 3055 3054 3054 3053 3053 3053 3052 3051 3050 3049 3048 3047 3046 3045 3044 3043 3042 3042 3041 3041 3040 3039 3038 3037 3036 3035 3034 3033 3032 3032 3031 3031 3030 3030 3029 3029 3028 3027 3027 3026 3025 3024 3023 3021 3020 3018 3016 3014 3013 3011 3009 3008 3006
3042 3042 3043 3044 3044 3045 3046 3046 3046 3047 3047 3048 3048 3049 3049 3049 3049 3049 3049 3050 3050 3050 3051 3050 3050 3052 3054 3054 3053 3052 3052 3052 3051 3050 3049 3048 3048 3048 3048 3047 3046 3046 3045 3044 3043 3043 3042 3041 3041 3040 3039 3038 3037 3036 3035 3034 3033 3032 3031 3030 3030 3030 3029 3029 3028 3028 3027 3027 3026 3026 3025 3024 3023 3022 3021 3020 3018 3017 3015 3013 3011 3010 3008 3007 3005
3039 3040 3040 3041 3041 3042 3042 3043 3043 3044 3044 3045 3046 3046 3047 3047 3047 3047 3047 3048 3048 3048 3049 3048 3047 3048 3050 3051 3050 3049 3049 3048 3048 3047 3046 3045 3045 3044 3044 3043 3043 3042 3042 3042 3041 3040 3040 3039 3038 3038 3037 3036 3035 3034 3033 3032 3031 3030 3029 3028 3028 3028 3027 3027 3026 3026 3025 3025 3025 3024 3024 3023 3022 3021 3019 3018 3017 3015 3014 3012 3010 3009 3007 3006 3004
3036 3037 3037 3038 3039 3039 3039 3040 3040 3041 3041 3042 3043 3044 3045 3045 3046 3046 3046 3046 3046 3046 3046 3045 3044 3044 3046 3047 3046 3045 3045 3045 3045 3044 3044 3043 3042 3042 3041 3040 3040 3039 3039 3039 3039 3038 3038 3037 3035 3035 3034 3033 3033 3032 3030 3030 3029 3028 3027 3027 3026 3026 3025 3025 3024 3024 3024 3023 3023 3023 3022 3021 3020 3019 3018 3017 3015 3014 3013 3011 3009 3008 3006 3005 3003
3034 3035 3035 3036 3036 3036 3037 3037 3037 3038 3039 3040 3041 3042 3043 3043 3043 3043 3043 3043 3043 3044 3044 3043 3042 3042 3042 3042 3042 3041 3042 3042 3042 3042 3041 3041 3041 3040 3038 3038 3038 3037 3037 3036 3036 3035 3035 3034 3033 3032 3031 3030 3029 3029 3028 3027 3027 3026 3025 3025 3024 3023 3023 3023 3022 3022 3022 3022 3021 3021 3021 3020 3019 3018 3017 3015 3014 3013 3012 3010 3009 3007 3006 3004 3003
3032 3033 3033 3033 3033 3034 3034 3034 3035 3036 3037 3038 3039 3040 3040 3040 3041 3041 3041 3041 3041 3041 3041 3041 3040 3039 3039 3038 3038 3038 3038 3039 3039 3039 3038 3038 3038 3037 3036 3036 3036 3035 3035 3034 3033 3032 3031 3031 3031 3029 3028 3027 3026 3026 3025 3024 3024 3023 3023 3022 3022 3022 3021 3021 3021 3020 3020 3020 3020 3020 3019 3018 3018 3017 3015 3014 3013 3012 3011 3009 3008 3006 3005 3004 3002
3031 3031 3031 3031 3031 3031 3031 3032 3032 3033 3034 3035 3036 3037 3037 3038 3038 3038 3038 3038 3038 3038 3038 3038 3037 3037 3036 3036 3035 3035 3036 3036 3036 3036 3035 3036 3036 3035 3034 3033 3033 3032 3031 3031 3030 3030 3029 3028 3028 3027 3025 3024 3024 3023 3022 3022 3021 3021 3020 3020 3020 3020 3019 3019 3019 3019 3019 3018 3018 3018 3017 3017 3016 3015 3014 3013 3012 3011 3010 3009 3007 3006 3005 3003 3002
3029 3029 3029 3029 3029 3029 3029 3029 3030 3031 3032 3033 3034 3034 3035 3035 3035 3035 3034 3035 3035 3034 3034 3034 3034 3034 3033 3033 3032 3032 3032 3032 3033 3032 3032 3033 3033 3032 3031 3030 3030 3029 3029 3028 3027 3027 3026 3025 3024 3023 3023 3022 3021 3020 3020 3019 3019 3018 3018 3018 3018 3017 3017 3017 3017 3017 3017 3017 3017 3016 3016 3015 3015 3014 3013 3012 3011 3010 3009 3008 3007 3005 3004 3003 3001
3026 3026 3026 3026 3026 3026 3027 3027 3028 3029 3030 3031 3031 3032 3032 3032 3032 3031 3031 3031 3031 3031 3031 3031 3031 3031 3030 3030 3029 3029 3029 3029 3029 3029 3029 3029 3029 3029 3027 3026 3026 3026 3026 3025 3023 3023 3022 3021 3020 3019 3019 3018 3018 3017 3017 3016 3016 3016 3016 3016 3015 3015 3015 3015 3015 3016 3015 3015 3015 3015 3014 3014 3013 3012 3011 3011 3010 3009 3008 3007 3006 3005 3004 3002 3001
3023 3024 3024 3024 3024 3024 3025 3025 3027 3027 3027 3028 3029 3029 3029 3029 3028 3029 3028 3028 3028 3028 3028 3028 3028 3028 3027 3027 3026 3026 3026 3026 3026 3025 3025 3025 3025 3024 3024 3023 3023 3022 3022 3021 3020 3019 3018 3017 3017 3016 3016 3015 3015 3014 3014 3014 3013 3013 3014 3013 3013 3013 3013 3013 3014 3014 3014 3014 3014 3013 3013 3012 3012 3011 3010 3010 3009 3008 3007 3006 3005 3004 3003 3002 3001
3021 3021 3022 3022 3022 3023 3023 3024 3025 3025 3025 3026 3027 3027 3026 3026 3026 3026 3026 3026 3026 3026 3026 3025 3025 3025 3024 3024 3023 3023 3023 3023 3023 3022 3022 3021 3020 3020 3019 3019 3019 3018 3018 3018 3017 3016 3015 3014 3014 3013 3013 3013 3012 3012 3011 3011 3011 3011 3011 3011 3011 3011 3011 3012 3012 3012 3012 3012 3012 3012 3011 3011 3010 3010 3009 3008 3008 3007 3006 3006 3005 3004 3002 3001 3000